Year,Month,Day,Hour,Minute,Value (Times are PST for temperature in C)
2008,07,03,00,00,21.20
2008,07,03,00,01,21.20
2008,07,03,00,02,21.10
2008,07,03,00,03,21.10
2008,07,03,00,04,21.10
2008,07,03,00,05,21.10
2008,07,03,00,06,21.10
2008,07,03,00,07,21.10
2008,07,03,00,08,21.00
2008,07,03,00,09,21.00
2008,07,03,00,10,21.00
2008,07,03,00,11,20.90
2008,07,03,00,12,20.90
2008,07,03,01,02,20.60
2008,07,03,01,03,20.50
2008,07,03,01,04,20.40
2008,07,03,01,05,20.40
2008,07,03,01,06,20.40
2008,07,03,01,07,20.30
2008,07,03,01,08,20.30
2008,07,03,01,09,20.30
2008,07,03,01,10,20.30
2008,07,03,01,11,20.20
2008,07,03,01,12,20.20
2008,07,03,01,13,20.20
2008,07,03,01,14,20.20
2008,07,03,01,15,20.20
2008,07,03,01,16,20.10
2008,07,03,01,17,20.10
2008,07,03,01,18,20.00
2008,07,03,01,19,20.00
2008,07,03,01,20,20.10
2008,07,03,01,21,20.10
2008,07,03,01,22,20.10
2008,07,03,01,23,20.10
2008,07,03,01,24,20.10
2008,07,03,01,25,20.10
2008,07,03,01,26,20.00
2008,07,03,01,27,20.00
2008,07,03,01,28,20.00
2008,07,03,01,29,20.00
2008,07,03,01,30,19.90
2008,07,03,01,31,19.90
2008,07,03,01,32,19.90
2008,07,03,01,33,19.90
2008,07,03,01,34,19.80
2008,07,03,01,35,19.80
2008,07,03,01,36,19.80
2008,07,03,01,37,19.80
2008,07,03,01,38,19.80
2008,07,03,01,39,19.80
2008,07,03,01,40,19.70
2008,07,03,01,41,19.70
2008,07,03,01,42,19.70
2008,07,03,01,43,19.60
2008,07,03,01,44,19.60
2008,07,03,01,45,19.60
2008,07,03,01,46,19.60
2008,07,03,01,47,19.60
2008,07,03,01,48,19.60
2008,07,03,01,49,19.60
2008,07,03,01,50,19.60
2008,07,03,01,51,19.60
2008,07,03,01,52,19.60
2008,07,03,01,53,19.60
2008,07,03,01,54,19.60
2008,07,03,01,55,19.60
2008,07,03,01,56,19.60
2008,07,03,01,57,19.60
2008,07,03,01,58,19.60
2008,07,03,01,59,19.60
2008,07,03,02,00,19.60
2008,07,03,02,01,19.60
2008,07,03,02,02,19.70
2008,07,03,02,03,19.70
2008,07,03,02,04,19.70
2008,07,03,02,05,19.70
2008,07,03,02,06,19.70
2008,07,03,02,07,19.80
2008,07,03,02,08,19.80
2008,07,03,02,09,19.80
2008,07,03,02,10,19.90
2008,07,03,02,11,19.90
2008,07,03,02,12,19.90
2008,07,03,02,13,19.90
2008,07,03,02,14,19.90
2008,07,03,02,15,19.90
2008,07,03,02,16,19.80
2008,07,03,02,17,19.80
2008,07,03,02,18,19.70
2008,07,03,02,19,19.70
2008,07,03,02,20,19.60
2008,07,03,02,21,19.60
2008,07,03,02,22,19.60
2008,07,03,02,23,19.60
2008,07,03,02,24,19.60
2008,07,03,02,25,19.60
2008,07,03,02,26,19.50
2008,07,03,02,27,19.50
2008,07,03,02,28,19.40
2008,07,03,02,29,19.40
2008,07,03,02,30,19.40
2008,07,03,02,31,19.40
2008,07,03,02,32,19.40
2008,07,03,02,33,19.40
2008,07,03,02,34,19.40
2008,07,03,02,35,19.30
2008,07,03,02,36,19.30
2008,07,03,02,37,19.30
2008,07,03,02,38,19.30
2008,07,03,02,39,19.30
2008,07,03,02,40,19.30
2008,07,03,02,41,19.30
2008,07,03,02,42,19.20
2008,07,03,02,43,19.20
2008,07,03,02,44,19.20
2008,07,03,02,45,19.20
2008,07,03,02,46,19.20
2008,07,03,02,47,19.20
2008,07,03,02,48,19.20
2008,07,03,02,49,19.20
2008,07,03,02,50,19.20
2008,07,03,02,51,19.20
2008,07,03,02,52,19.20
2008,07,03,02,53,19.20
2008,07,03,02,54,19.20
2008,07,03,02,55,19.20
2008,07,03,02,56,19.20
2008,07,03,02,57,19.20
2008,07,03,02,58,19.20
2008,07,03,02,59,19.20
2008,07,03,03,00,19.20
2008,07,03,03,01,19.20
2008,07,03,03,02,19.20
2008,07,03,03,03,19.20
2008,07,03,03,04,19.20
2008,07,03,03,05,19.10
2008,07,03,03,06,19.10
2008,07,03,03,07,19.10
2008,07,03,03,08,19.10
2008,07,03,03,09,19.10
2008,07,03,03,10,19.10
2008,07,03,03,11,19.10
2008,07,03,03,12,19.10
2008,07,03,03,13,19.10
2008,07,03,03,14,19.10
2008,07,03,03,15,19.00
2008,07,03,03,16,19.00
2008,07,03,03,17,19.00
2008,07,03,03,18,18.90
2008,07,03,03,19,18.90
2008,07,03,03,20,18.90
2008,07,03,03,21,18.90
2008,07,03,03,22,18.90
2008,07,03,03,23,18.90
2008,07,03,03,24,18.90
2008,07,03,03,25,18.90
2008,07,03,03,26,18.90
2008,07,03,03,27,18.90
2008,07,03,03,28,18.80
2008,07,03,03,29,18.80
2008,07,03,03,30,18.80
2008,07,03,03,31,18.80
2008,07,03,03,32,18.80
2008,07,03,03,33,18.70
2008,07,03,03,34,18.70
2008,07,03,03,35,18.70
2008,07,03,03,36,18.70
2008,07,03,03,37,18.70
2008,07,03,03,38,18.60
2008,07,03,03,39,18.60
2008,07,03,03,40,18.60
2008,07,03,03,41,18.60
2008,07,03,03,42,18.60
2008,07,03,03,43,18.60
2008,07,03,03,44,18.60
2008,07,03,03,45,18.60
2008,07,03,03,46,18.60
2008,07,03,03,47,18.60
2008,07,03,03,48,18.60
2008,07,03,03,49,18.60
2008,07,03,03,50,18.60
2008,07,03,03,51,18.60
2008,07,03,03,52,18.50
2008,07,03,03,53,18.50
2008,07,03,03,54,18.60
2008,07,03,03,55,18.60
2008,07,03,03,56,18.60
2008,07,03,03,57,18.60
2008,07,03,03,58,18.60
2008,07,03,03,59,18.60
2008,07,03,04,00,18.50
2008,07,03,04,01,18.50
2008,07,03,04,02,18.50
2008,07,03,04,03,18.50
2008,07,03,04,04,18.40
2008,07,03,04,05,18.40
2008,07,03,04,06,18.40
2008,07,03,04,07,18.40
2008,07,03,04,08,18.30
2008,07,03,04,09,18.30
2008,07,03,04,10,18.30
2008,07,03,04,11,18.30
2008,07,03,04,12,18.20
2008,07,03,04,13,18.20
2008,07,03,04,14,18.20
2008,07,03,04,15,18.10
2008,07,03,04,16,18.10
2008,07,03,04,17,18.10
2008,07,03,04,18,18.10
2008,07,03,04,19,18.10
2008,07,03,04,20,18.10
2008,07,03,04,21,18.10
2008,07,03,04,22,18.10
2008,07,03,04,23,18.10
2008,07,03,04,24,18.10
2008,07,03,04,25,18.10
2008,07,03,04,26,18.10
2008,07,03,04,27,18.10
2008,07,03,04,28,18.00
2008,07,03,04,29,18.00
2008,07,03,04,30,17.90
2008,07,03,04,31,17.90
2008,07,03,04,32,17.90
2008,07,03,04,33,17.90
2008,07,03,04,34,17.90
2008,07,03,04,35,17.90
2008,07,03,04,36,17.90
2008,07,03,04,37,17.90
2008,07,03,04,38,17.90
2008,07,03,04,39,17.90
2008,07,03,04,40,17.90
2008,07,03,04,41,17.90
2008,07,03,04,42,17.90
2008,07,03,04,43,17.90
2008,07,03,04,44,17.90
2008,07,03,04,45,17.90
2008,07,03,04,46,17.80
2008,07,03,04,47,17.80
2008,07,03,04,48,17.80
2008,07,03,04,49,17.80
2008,07,03,04,50,17.80
2008,07,03,04,51,17.80
2008,07,03,04,52,17.70
2008,07,03,04,53,17.70
2008,07,03,04,54,17.70
2008,07,03,04,55,17.70
2008,07,03,04,56,17.70
2008,07,03,04,57,17.70
2008,07,03,04,58,17.60
2008,07,03,04,59,17.60
2008,07,03,05,00,17.60
2008,07,03,05,01,17.60
2008,07,03,05,02,17.60
2008,07,03,05,03,17.60
2008,07,03,05,04,17.60
2008,07,03,05,05,17.50
2008,07,03,05,06,17.50
2008,07,03,05,07,17.50
2008,07,03,05,08,17.50
2008,07,03,05,09,17.50
2008,07,03,05,10,17.50
2008,07,03,05,11,17.50
2008,07,03,05,12,17.50
2008,07,03,05,13,17.50
2008,07,03,05,14,17.50
2008,07,03,05,15,17.60
2008,07,03,05,16,17.60
2008,07,03,05,17,17.60
2008,07,03,05,18,17.60
2008,07,03,05,19,17.60
2008,07,03,05,20,17.60
2008,07,03,05,21,17.70
2008,07,03,05,22,17.60
2008,07,03,05,23,17.60
2008,07,03,05,24,17.60
2008,07,03,05,25,17.50
2008,07,03,05,26,17.50
2008,07,03,05,27,17.50
2008,07,03,05,28,17.40
2008,07,03,05,29,17.40
2008,07,03,05,30,17.40
2008,07,03,05,31,17.40
2008,07,03,05,32,17.40
2008,07,03,05,33,17.40
2008,07,03,05,34,17.40
2008,07,03,05,35,17.30
2008,07,03,05,36,17.30
2008,07,03,05,37,17.30
2008,07,03,05,38,17.30
2008,07,03,05,39,17.30
2008,07,03,05,40,17.30
2008,07,03,05,41,17.30
2008,07,03,05,42,17.30
2008,07,03,05,43,17.30
2008,07,03,05,44,17.30
2008,07,03,05,45,17.30
2008,07,03,05,46,17.40
2008,07,03,05,47,17.40
2008,07,03,05,48,17.40
2008,07,03,05,49,17.40
2008,07,03,05,50,17.40
2008,07,03,05,51,17.40
2008,07,03,05,52,17.40
2008,07,03,05,53,17.40
2008,07,03,05,54,17.40
2008,07,03,05,55,17.40
2008,07,03,05,56,17.40
2008,07,03,05,57,17.40
2008,07,03,05,58,17.40
2008,07,03,05,59,17.40
2008,07,03,06,00,17.40
2008,07,03,06,01,17.40
2008,07,03,06,02,17.40
2008,07,03,06,03,17.40
2008,07,03,06,04,17.40
2008,07,03,06,05,17.50
2008,07,03,06,06,17.50
2008,07,03,06,07,17.50
2008,07,03,06,08,17.50
2008,07,03,06,09,17.50
2008,07,03,06,10,17.60
2008,07,03,06,11,17.60
2008,07,03,06,12,17.60
2008,07,03,06,13,17.60
2008,07,03,06,14,17.60
2008,07,03,06,15,17.60
2008,07,03,06,16,17.60
2008,07,03,06,17,17.60
2008,07,03,06,18,17.60
2008,07,03,06,19,17.60
2008,07,03,06,20,17.60
2008,07,03,06,21,17.70
2008,07,03,06,22,17.70
2008,07,03,06,23,17.70
2008,07,03,06,24,17.70
2008,07,03,06,25,17.70
2008,07,03,06,26,17.70
2008,07,03,06,27,17.70
2008,07,03,06,28,17.70
2008,07,03,06,29,17.80
2008,07,03,06,30,17.80
2008,07,03,06,31,17.80
2008,07,03,06,32,17.80
2008,07,03,06,33,17.80
2008,07,03,06,34,17.80
2008,07,03,06,35,17.80
2008,07,03,06,36,17.80
2008,07,03,06,37,17.80
2008,07,03,06,38,17.80
2008,07,03,06,39,17.90
2008,07,03,06,40,17.90
2008,07,03,06,41,17.90
2008,07,03,06,42,17.90
2008,07,03,06,43,17.90
2008,07,03,06,44,17.90
2008,07,03,06,45,17.90
2008,07,03,06,46,17.90
2008,07,03,06,47,18.00
2008,07,03,06,48,18.00
2008,07,03,06,49,18.00
2008,07,03,06,50,18.00
2008,07,03,06,51,18.00
2008,07,03,06,52,18.00
2008,07,03,06,53,18.00
2008,07,03,06,54,18.10
2008,07,03,06,55,18.10
2008,07,03,06,56,18.10
2008,07,03,06,57,18.10
2008,07,03,06,58,18.10
2008,07,03,06,59,18.20
2008,07,03,07,00,18.20
2008,07,03,07,01,18.20
2008,07,03,07,02,18.20
2008,07,03,07,03,18.20
2008,07,03,07,04,18.30
2008,07,03,07,05,18.30
2008,07,03,07,06,18.30
2008,07,03,07,07,18.40
2008,07,03,07,08,18.40
2008,07,03,07,09,18.40
2008,07,03,07,10,18.50
2008,07,03,07,11,18.50
2008,07,03,07,12,18.60
2008,07,03,07,13,18.60
2008,07,03,07,14,18.60
2008,07,03,07,15,18.60
2008,07,03,07,16,18.60
2008,07,03,07,17,18.60
2008,07,03,07,18,18.70
2008,07,03,07,19,18.70
2008,07,03,07,20,18.70
2008,07,03,07,21,18.70
2008,07,03,07,22,18.70
2008,07,03,07,23,18.70
2008,07,03,07,24,18.70
2008,07,03,07,25,18.70
2008,07,03,07,26,18.80
2008,07,03,07,27,18.80
2008,07,03,07,28,18.80
2008,07,03,07,29,18.80
2008,07,03,07,30,18.80
2008,07,03,07,31,18.80
2008,07,03,07,32,18.80
2008,07,03,07,33,18.80
2008,07,03,07,34,18.80
2008,07,03,07,35,18.90
2008,07,03,07,36,18.90
2008,07,03,07,37,18.90
2008,07,03,07,38,18.90
2008,07,03,07,39,19.00
2008,07,03,07,40,19.00
2008,07,03,07,41,19.00
2008,07,03,07,42,19.00
2008,07,03,07,43,19.00
2008,07,03,07,44,19.00
2008,07,03,07,45,19.00
2008,07,03,07,46,19.10
2008,07,03,07,47,19.10
2008,07,03,07,48,19.10
2008,07,03,07,49,19.10
2008,07,03,07,50,19.10
2008,07,03,07,51,19.10
2008,07,03,07,52,19.10
2008,07,03,07,53,19.00
2008,07,03,07,54,18.90
2008,07,03,07,55,18.90
2008,07,03,07,56,18.80
2008,07,03,07,57,18.80
2008,07,03,07,58,18.70
2008,07,03,07,59,18.60
2008,07,03,08,00,18.60
2008,07,03,08,01,18.50
2008,07,03,08,02,18.30
2008,07,03,08,03,18.20
2008,07,03,08,04,18.20
2008,07,03,08,05,18.10
2008,07,03,08,06,18.00
2008,07,03,08,07,18.00
2008,07,03,08,08,17.90
2008,07,03,08,09,17.90
2008,07,03,08,10,17.80
2008,07,03,08,11,17.80
2008,07,03,08,12,17.80
2008,07,03,08,13,17.80
2008,07,03,08,14,17.80
2008,07,03,08,15,17.80
2008,07,03,08,16,17.80
2008,07,03,08,17,17.80
2008,07,03,08,18,17.80
2008,07,03,08,19,17.80
2008,07,03,08,20,17.80
2008,07,03,08,21,17.80
2008,07,03,08,22,17.80
2008,07,03,08,23,17.90
2008,07,03,08,24,17.90
2008,07,03,08,25,17.90
2008,07,03,08,26,18.00
2008,07,03,08,27,18.00
2008,07,03,08,28,18.10
2008,07,03,08,29,18.10
2008,07,03,08,30,18.10
2008,07,03,08,31,18.10
2008,07,03,08,32,18.20
2008,07,03,08,33,18.20
2008,07,03,08,34,18.20
2008,07,03,08,35,18.20
2008,07,03,08,36,18.20
2008,07,03,08,37,18.20
2008,07,03,08,38,18.30
2008,07,03,08,39,18.30
2008,07,03,08,40,18.30
2008,07,03,08,41,18.40
2008,07,03,08,42,18.40
2008,07,03,08,43,18.50
2008,07,03,08,44,18.60
2008,07,03,08,45,18.60
2008,07,03,08,46,18.60
2008,07,03,08,47,18.60
2008,07,03,08,48,18.70
2008,07,03,08,49,18.80
2008,07,03,08,50,18.80
2008,07,03,08,51,18.80
2008,07,03,08,52,18.80
2008,07,03,08,53,18.90
2008,07,03,08,54,18.90
2008,07,03,08,55,18.90
2008,07,03,08,56,18.90
2008,07,03,08,57,18.90
2008,07,03,08,58,19.00
2008,07,03,08,59,19.00
2008,07,03,09,00,19.10
2008,07,03,09,01,19.10
2008,07,03,09,02,19.10
2008,07,03,09,03,19.10
2008,07,03,09,04,19.10
2008,07,03,09,05,19.20
2008,07,03,09,06,19.20
2008,07,03,09,07,19.20
2008,07,03,09,08,19.30
2008,07,03,09,09,19.30
2008,07,03,09,10,19.30
2008,07,03,09,11,19.40
2008,07,03,09,12,19.50
2008,07,03,09,13,19.50
2008,07,03,09,14,19.60
2008,07,03,09,15,19.60
2008,07,03,09,16,19.70
2008,07,03,09,17,19.70
2008,07,03,09,18,19.70
2008,07,03,09,19,19.70
2008,07,03,09,20,19.50
2008,07,03,09,21,19.40
2008,07,03,09,22,19.40
2008,07,03,09,23,19.30
2008,07,03,09,24,19.30
2008,07,03,09,25,19.30
2008,07,03,09,26,19.30
2008,07,03,09,27,19.30
2008,07,03,09,28,19.30
2008,07,03,09,29,19.30
2008,07,03,09,30,19.30
2008,07,03,09,31,19.40
2008,07,03,09,32,19.40
2008,07,03,09,33,19.40
2008,07,03,09,34,19.40
2008,07,03,09,35,19.40
2008,07,03,09,36,19.30
2008,07,03,09,37,19.30
2008,07,03,09,38,19.30
2008,07,03,09,39,19.30
2008,07,03,09,40,19.30
2008,07,03,09,41,19.30
2008,07,03,09,42,19.30
2008,07,03,09,43,19.20
2008,07,03,09,44,19.20
2008,07,03,09,45,19.20
2008,07,03,09,46,19.20
2008,07,03,09,47,19.10
2008,07,03,09,48,18.90
2008,07,03,09,49,18.90
2008,07,03,09,50,18.80
2008,07,03,09,51,18.70
2008,07,03,09,52,18.60
2008,07,03,09,53,18.60
2008,07,03,09,54,18.60
2008,07,03,09,55,18.70
2008,07,03,09,56,18.70
2008,07,03,09,57,18.80
2008,07,03,09,58,19.00
2008,07,03,09,59,19.10
2008,07,03,10,00,19.30
2008,07,03,10,01,19.40
2008,07,03,10,02,19.40
2008,07,03,10,03,19.40
2008,07,03,10,04,19.40
2008,07,03,10,05,19.40
2008,07,03,10,06,19.40
2008,07,03,10,07,19.40
2008,07,03,10,08,19.50
2008,07,03,10,09,19.60
2008,07,03,10,10,19.70
2008,07,03,10,11,19.60
2008,07,03,10,12,19.60
2008,07,03,10,13,19.60
2008,07,03,10,14,19.60
2008,07,03,10,15,19.60
2008,07,03,10,16,19.50
2008,07,03,10,17,19.50
2008,07,03,10,18,19.30
2008,07,03,10,19,19.20
2008,07,03,10,20,19.10
2008,07,03,10,21,19.00
2008,07,03,10,22,18.90
2008,07,03,10,23,18.80
2008,07,03,10,24,18.70
2008,07,03,10,25,18.70
2008,07,03,10,26,18.60
2008,07,03,10,27,18.60
2008,07,03,10,28,18.60
2008,07,03,10,29,18.60
2008,07,03,10,30,18.60
2008,07,03,10,31,18.70
2008,07,03,10,32,18.80
2008,07,03,10,33,18.90
2008,07,03,10,34,19.00
2008,07,03,10,35,19.10
2008,07,03,10,36,19.10
2008,07,03,10,37,19.00
2008,07,03,10,38,18.90
2008,07,03,10,39,18.80
2008,07,03,10,40,18.60
2008,07,03,10,41,18.60
2008,07,03,10,42,18.60
2008,07,03,10,43,18.50
2008,07,03,10,44,18.60
2008,07,03,10,45,18.60
2008,07,03,10,46,18.60
2008,07,03,10,47,18.60
2008,07,03,10,48,18.70
2008,07,03,10,49,18.80
2008,07,03,10,50,18.90
2008,07,03,10,51,19.00
2008,07,03,10,52,19.10
2008,07,03,10,53,19.20
2008,07,03,10,54,19.20
2008,07,03,10,55,19.30
2008,07,03,10,56,19.40
2008,07,03,10,57,19.40
2008,07,03,10,58,19.40
2008,07,03,10,59,19.30
2008,07,03,11,00,19.20
2008,07,03,11,01,19.20
2008,07,03,11,02,19.10
2008,07,03,11,03,19.00
2008,07,03,11,04,18.90
2008,07,03,11,05,18.80
2008,07,03,11,06,18.70
2008,07,03,11,07,18.70
2008,07,03,11,08,18.60
2008,07,03,11,09,18.60
2008,07,03,11,10,18.60
2008,07,03,11,11,18.50
2008,07,03,11,12,18.50
2008,07,03,11,13,18.40
2008,07,03,11,14,18.50
2008,07,03,11,15,18.50
2008,07,03,11,16,18.60
2008,07,03,11,17,18.60
2008,07,03,11,18,18.60
2008,07,03,11,19,18.60
2008,07,03,11,20,18.60
2008,07,03,11,21,18.50
2008,07,03,11,22,18.50
2008,07,03,11,23,18.60
2008,07,03,11,24,18.60
2008,07,03,11,25,18.60
2008,07,03,11,26,18.70
2008,07,03,11,27,18.70
2008,07,03,11,28,18.70
2008,07,03,11,29,18.60
2008,07,03,11,30,18.50
2008,07,03,11,31,18.50
2008,07,03,11,32,18.50
2008,07,03,11,33,18.50
2008,07,03,11,34,18.60
2008,07,03,11,35,18.60
2008,07,03,11,36,18.60
2008,07,03,11,37,18.60
2008,07,03,11,38,18.70
2008,07,03,11,39,18.70
2008,07,03,11,40,18.70
2008,07,03,11,41,18.70
2008,07,03,11,42,18.80
2008,07,03,11,43,18.80
2008,07,03,11,44,18.80
2008,07,03,11,45,18.80
2008,07,03,11,46,18.80
2008,07,03,11,47,18.80
2008,07,03,11,48,18.80
2008,07,03,11,49,18.80
2008,07,03,11,50,18.90
2008,07,03,11,51,18.90
2008,07,03,11,52,18.80
2008,07,03,11,53,18.80
2008,07,03,11,54,18.70
2008,07,03,11,55,18.70
2008,07,03,11,56,18.70
2008,07,03,11,57,18.60
2008,07,03,11,58,18.60
2008,07,03,11,59,18.70
2008,07,03,12,00,18.70
2008,07,03,12,01,18.70
2008,07,03,12,02,18.70
2008,07,03,12,03,18.70
2008,07,03,12,04,18.60
2008,07,03,12,05,18.60
2008,07,03,12,06,18.60
2008,07,03,12,07,18.60
2008,07,03,12,08,18.60
2008,07,03,12,09,18.60
2008,07,03,12,10,18.60
2008,07,03,12,11,18.70
2008,07,03,12,12,18.70
2008,07,03,12,13,18.80
2008,07,03,12,14,18.80
2008,07,03,12,15,18.80
2008,07,03,12,16,18.80
2008,07,03,12,17,18.70
2008,07,03,12,18,18.60
2008,07,03,12,19,18.60
2008,07,03,12,20,18.60
2008,07,03,12,21,18.60
2008,07,03,12,22,18.60
2008,07,03,12,23,18.70
2008,07,03,12,24,18.70
2008,07,03,12,25,18.80
2008,07,03,12,26,18.90
2008,07,03,12,27,18.90
2008,07,03,12,28,18.90
2008,07,03,12,29,18.90
2008,07,03,12,30,19.00
2008,07,03,12,31,19.10
2008,07,03,12,32,19.10
2008,07,03,12,33,19.10
2008,07,03,12,34,19.20
2008,07,03,12,35,19.30
2008,07,03,12,36,19.40
2008,07,03,12,37,19.50
2008,07,03,12,38,19.60
2008,07,03,12,39,19.70
2008,07,03,12,40,19.70
2008,07,03,12,41,19.80
2008,07,03,12,42,19.80
2008,07,03,12,43,19.80
2008,07,03,12,44,19.90
2008,07,03,12,45,19.90
2008,07,03,12,46,19.90
2008,07,03,12,47,19.90
2008,07,03,12,48,19.80
2008,07,03,12,49,19.60
2008,07,03,12,50,19.60
2008,07,03,12,51,19.40
2008,07,03,12,52,19.30
2008,07,03,12,53,19.20
2008,07,03,12,54,19.10
2008,07,03,12,55,19.10
2008,07,03,12,56,19.00
2008,07,03,12,57,19.10
2008,07,03,12,58,19.20
2008,07,03,12,59,19.30
2008,07,03,13,00,19.40
2008,07,03,13,01,19.60
2008,07,03,13,02,19.70
2008,07,03,13,03,19.80
2008,07,03,13,04,19.90
2008,07,03,13,05,20.00
2008,07,03,13,06,20.10
2008,07,03,13,07,20.20
2008,07,03,13,08,20.10
2008,07,03,13,09,20.00
2008,07,03,13,10,20.00
2008,07,03,13,11,19.90
2008,07,03,13,12,19.70
2008,07,03,13,13,19.60
2008,07,03,13,14,19.60
2008,07,03,13,15,19.50
2008,07,03,13,16,19.40
2008,07,03,13,17,19.40
2008,07,03,13,18,19.40
2008,07,03,13,19,19.40
2008,07,03,13,20,19.50
2008,07,03,13,21,19.50
2008,07,03,13,22,19.40
2008,07,03,13,23,19.40
2008,07,03,13,24,19.40
2008,07,03,13,25,19.40
2008,07,03,13,26,19.50
2008,07,03,13,27,19.50
2008,07,03,13,28,19.40
2008,07,03,13,29,19.30
2008,07,03,13,30,19.30
2008,07,03,13,31,19.30
2008,07,03,13,32,19.40
2008,07,03,13,33,19.50
2008,07,03,13,34,19.60
2008,07,03,13,35,19.70
2008,07,03,13,36,19.70
2008,07,03,13,37,19.70
2008,07,03,13,38,19.70
2008,07,03,13,39,19.70
2008,07,03,13,40,19.70
2008,07,03,13,41,19.60
2008,07,03,13,42,19.70
2008,07,03,13,43,19.70
2008,07,03,13,44,19.70
2008,07,03,13,45,19.70
2008,07,03,13,46,19.70
2008,07,03,13,47,19.70
2008,07,03,13,48,19.80
2008,07,03,13,49,19.80
2008,07,03,13,50,19.80
2008,07,03,13,51,19.80
2008,07,03,13,52,19.70
2008,07,03,13,53,19.70
2008,07,03,13,54,19.70
2008,07,03,13,55,19.70
2008,07,03,13,56,19.70
2008,07,03,13,57,19.70
2008,07,03,13,58,19.60
2008,07,03,13,59,19.60
2008,07,03,14,00,19.60
2008,07,03,14,01,19.70
2008,07,03,14,02,19.70
2008,07,03,14,03,19.70
2008,07,03,14,04,19.70
2008,07,03,14,05,19.70
2008,07,03,14,06,19.70
2008,07,03,14,07,19.90
2008,07,03,14,08,19.90
2008,07,03,14,09,19.90
2008,07,03,14,10,19.90
2008,07,03,14,11,19.90
2008,07,03,14,12,20.00
2008,07,03,14,13,20.00
2008,07,03,14,14,20.10
2008,07,03,14,15,20.10
2008,07,03,14,16,20.10
2008,07,03,14,17,20.10
2008,07,03,14,18,20.00
2008,07,03,14,19,19.90
2008,07,03,14,20,19.80
2008,07,03,14,21,19.80
2008,07,03,14,22,19.80
2008,07,03,14,23,19.80
2008,07,03,14,24,19.70
2008,07,03,14,25,19.80
2008,07,03,14,26,19.90
2008,07,03,14,27,20.00
2008,07,03,14,28,19.90
2008,07,03,14,29,19.80
2008,07,03,14,30,19.70
2008,07,03,14,31,19.70
2008,07,03,14,32,19.60
2008,07,03,14,33,19.50
2008,07,03,14,34,19.40
2008,07,03,14,35,19.40
2008,07,03,14,36,19.40
2008,07,03,14,37,19.40
2008,07,03,14,38,19.40
2008,07,03,14,39,19.30
2008,07,03,14,40,19.20
2008,07,03,14,41,19.10
2008,07,03,14,42,19.10
2008,07,03,14,43,19.30
2008,07,03,14,44,19.40
2008,07,03,14,45,19.50
2008,07,03,14,46,19.50
2008,07,03,14,47,19.50
2008,07,03,14,48,19.40
2008,07,03,14,49,19.40
2008,07,03,14,50,19.40
2008,07,03,14,51,19.30
2008,07,03,14,52,19.30
2008,07,03,14,53,19.30
2008,07,03,14,54,19.30
2008,07,03,14,55,19.40
2008,07,03,14,56,19.40
2008,07,03,14,57,19.40
2008,07,03,14,58,19.30
2008,07,03,14,59,19.30
2008,07,03,15,00,19.30
2008,07,03,15,01,19.20
2008,07,03,15,02,19.20
2008,07,03,15,03,19.10
2008,07,03,15,04,19.00
2008,07,03,15,05,19.10
2008,07,03,15,06,19.00
2008,07,03,15,07,18.90
2008,07,03,15,08,18.90
2008,07,03,15,09,18.90
2008,07,03,15,10,18.90
2008,07,03,15,11,18.90
2008,07,03,15,12,18.80
2008,07,03,15,13,18.80
2008,07,03,15,14,18.70
2008,07,03,15,15,18.80
2008,07,03,15,16,18.80
2008,07,03,15,17,18.90
2008,07,03,15,18,19.00
2008,07,03,15,19,19.10
2008,07,03,15,20,19.10
2008,07,03,15,21,19.20
2008,07,03,15,22,19.20
2008,07,03,15,23,19.10
2008,07,03,15,24,19.10
2008,07,03,15,25,19.20
2008,07,03,15,26,19.30
2008,07,03,15,27,19.40
2008,07,03,15,28,19.40
2008,07,03,15,29,19.30
2008,07,03,15,30,19.30
2008,07,03,15,31,19.30
2008,07,03,15,32,19.40
2008,07,03,15,33,19.50
2008,07,03,15,34,19.50
2008,07,03,15,35,19.60
2008,07,03,15,36,19.70
2008,07,03,15,37,19.80
2008,07,03,15,38,19.80
2008,07,03,15,39,19.80
2008,07,03,15,40,19.80
2008,07,03,15,41,19.80
2008,07,03,15,42,19.90
2008,07,03,15,43,20.00
2008,07,03,15,44,20.00
2008,07,03,15,45,20.10
2008,07,03,15,46,20.20
2008,07,03,15,47,20.30
2008,07,03,15,48,20.50
2008,07,03,15,49,20.50
2008,07,03,15,50,20.40
2008,07,03,15,51,20.40
2008,07,03,15,52,20.40
2008,07,03,15,53,20.50
2008,07,03,15,54,20.60
2008,07,03,15,55,20.50
2008,07,03,15,56,20.50
2008,07,03,15,57,20.50
2008,07,03,15,58,20.40
2008,07,03,15,59,20.40
2008,07,03,16,00,20.30
2008,07,03,16,01,20.30
2008,07,03,16,02,20.30
2008,07,03,16,03,20.30
2008,07,03,16,04,20.30
2008,07,03,16,05,20.30
2008,07,03,16,06,20.30
2008,07,03,16,07,20.30
2008,07,03,16,08,20.20
2008,07,03,16,09,20.20
2008,07,03,16,10,20.10
2008,07,03,16,11,20.10
2008,07,03,16,12,20.10
2008,07,03,16,13,20.10
2008,07,03,16,14,20.20
2008,07,03,16,15,20.20
2008,07,03,16,16,20.20
2008,07,03,16,17,20.10
2008,07,03,16,18,20.10
2008,07,03,16,19,20.00
2008,07,03,16,20,19.90
2008,07,03,16,21,19.90
2008,07,03,16,22,20.00
2008,07,03,16,23,20.00
2008,07,03,16,24,20.00
2008,07,03,16,25,20.10
2008,07,03,16,26,20.20
2008,07,03,16,27,20.10
2008,07,03,16,28,20.00
2008,07,03,16,29,19.90
2008,07,03,16,30,19.90
2008,07,03,16,31,20.00
2008,07,03,16,32,19.90
2008,07,03,16,33,19.90
2008,07,03,16,34,19.90
2008,07,03,16,35,19.90
2008,07,03,16,36,19.90
2008,07,03,16,37,19.90
2008,07,03,16,38,19.90
2008,07,03,16,39,19.90
2008,07,03,16,40,19.90
2008,07,03,16,41,19.90
2008,07,03,16,42,20.00
2008,07,03,16,43,20.00
2008,07,03,16,44,20.10
2008,07,03,16,45,20.20
2008,07,03,16,46,20.20
2008,07,03,16,47,20.20
2008,07,03,16,48,20.30
2008,07,03,16,49,20.20
2008,07,03,16,50,20.20
2008,07,03,16,51,20.20
2008,07,03,16,52,20.20
2008,07,03,16,53,20.20
2008,07,03,16,54,20.10
2008,07,03,16,55,20.10
2008,07,03,16,56,20.10
2008,07,03,16,57,20.10
2008,07,03,16,58,20.00
2008,07,03,16,59,19.90
2008,07,03,17,00,19.80
2008,07,03,17,01,19.70
2008,07,03,17,02,19.60
2008,07,03,17,03,19.60
2008,07,03,17,04,19.60
2008,07,03,17,05,19.70
2008,07,03,17,06,19.70
2008,07,03,17,07,19.70
2008,07,03,17,08,19.80
2008,07,03,17,09,19.80
2008,07,03,17,10,19.80
2008,07,03,17,11,19.80
2008,07,03,17,12,19.80
2008,07,03,17,13,19.80
2008,07,03,17,14,19.80
2008,07,03,17,15,19.70
2008,07,03,17,16,19.80
2008,07,03,17,17,19.80
2008,07,03,17,18,19.80
2008,07,03,17,19,19.80
2008,07,03,17,20,19.70
2008,07,03,17,21,19.60
2008,07,03,17,22,19.60
2008,07,03,17,23,19.50
2008,07,03,17,24,19.40
2008,07,03,17,25,19.40
2008,07,03,17,26,19.40
2008,07,03,17,27,19.40
2008,07,03,17,28,19.40
2008,07,03,17,29,19.40
2008,07,03,17,30,19.50
2008,07,03,17,31,19.60
2008,07,03,17,32,19.70
2008,07,03,17,33,19.80
2008,07,03,17,34,19.80
2008,07,03,17,35,19.80
2008,07,03,17,36,19.90
2008,07,03,17,37,20.00
2008,07,03,17,38,20.10
2008,07,03,17,39,20.10
2008,07,03,17,40,20.10
2008,07,03,17,41,20.10
2008,07,03,17,42,20.00
2008,07,03,17,43,20.00
2008,07,03,17,44,19.90
2008,07,03,17,45,19.90
2008,07,03,17,46,19.90
2008,07,03,17,47,19.90
2008,07,03,17,48,19.90
2008,07,03,17,49,19.90
2008,07,03,17,50,19.80
2008,07,03,17,51,19.80
2008,07,03,17,52,19.70
2008,07,03,17,53,19.60
2008,07,03,17,54,19.50
2008,07,03,17,55,19.40
2008,07,03,17,56,19.30
2008,07,03,17,57,19.20
2008,07,03,17,58,19.20
2008,07,03,17,59,19.30
2008,07,03,18,00,19.20
2008,07,03,18,01,19.20
2008,07,03,18,02,19.20
2008,07,03,18,03,19.20
2008,07,03,18,04,19.10
2008,07,03,18,05,19.00
2008,07,03,18,06,18.90
2008,07,03,18,07,18.80
2008,07,03,18,08,18.70